TimeCST,TemperatureF,Dew PointF,Humidity,Sea Level PressureIn,VisibilityMPH,Wind Direction,Wind SpeedMPH,Gust SpeedMPH,PrecipitationIn,Events,Conditions,WindDirDegrees,DateUTC
12:53 AM,68.0,63.0,84,30.05,10.0,SSE,13.8,-,N/A,,Clear,160,2011-11-07 06:53:00
1:53 AM,68.0,62.1,81,30.06,10.0,SSE,12.7,-,N/A,,Clear,150,2011-11-07 07:53:00
2:53 AM,66.9,62.1,84,30.06,10.0,SSE,9.2,-,N/A,,Scattered Clouds,150,2011-11-07 08:53:00
3:53 AM,66.9,62.1,84,30.07,10.0,SSE,10.4,-,N/A,,Overcast,160,2011-11-07 09:53:00
4:19 AM,66.2,62.6,88,30.09,10.0,South,10.4,-,N/A,,Overcast,170,2011-11-07 10:19:00
4:53 AM,66.9,62.1,84,30.08,10.0,SSE,11.5,-,N/A,,Overcast,160,2011-11-07 10:53:00
5:53 AM,66.9,62.1,84,30.08,10.0,South,10.4,-,N/A,,Overcast,170,2011-11-07 11:53:00
6:17 AM,66.2,62.6,88,30.10,10.0,SSE,11.5,-,N/A,,Overcast,150,2011-11-07 12:17:00
6:34 AM,66.2,62.6,88,30.09,10.0,SSE,10.4,-,N/A,,Overcast,150,2011-11-07 12:34:00
10:53 AM,72.0,63.0,73,30.08,10.0,SSE,16.1,-,N/A,,Overcast,150,2011-11-07 16:53:00
11:53 AM,73.0,63.0,71,30.06,10.0,SSE,13.8,-,N/A,,Overcast,150,2011-11-07 17:53:00
12:53 PM,73.0,63.0,71,30.03,10.0,SSE,17.3,-,N/A,,Overcast,150,2011-11-07 18:53:00
1:42 PM,73.4,62.6,69,30.02,10.0,SSE,15.0,-,N/A,,Overcast,150,2011-11-07 19:42:00
1:51 PM,73.4,62.6,69,30.01,10.0,SSE,10.4,20.7,N/A,,Overcast,150,2011-11-07 19:51:00
1:53 PM,73.9,63.0,68,30.00,10.0,SE,15.0,18.4,N/A,,Overcast,130,2011-11-07 19:53:00
2:53 PM,75.2,62.6,65,30.00,10.0,SSE,11.5,23.0,N/A,,Overcast,150,2011-11-07 20:53:00
3:00 PM,75.2,62.6,65,30.00,10.0,SSE,13.8,-,N/A,,Overcast,150,2011-11-07 21:00:00
3:53 PM,75.0,63.0,66,29.97,10.0,SSE,10.4,-,N/A,,Overcast,160,2011-11-07 21:53:00
4:53 PM,75.0,63.0,66,29.96,10.0,SE,11.5,-,N/A,,Scattered Clouds,140,2011-11-07 22:53:00
5:53 PM,73.9,63.0,68,29.95,10.0,SE,15.0,-,0.00,,Scattered Clouds,140,2011-11-07 23:53:00
6:53 PM,73.0,63.0,71,29.95,10.0,SE,17.3,25.3,N/A,,Mostly Cloudy,140,2011-11-08 00:53:00
7:53 PM,73.4,64.4,73,29.98,10.0,SE,18.4,21.9,N/A,,Clear,140,2011-11-08 01:53:00
8:53 PM,72.0,63.0,73,29.96,10.0,SE,17.3,24.2,N/A,,Partly Cloudy,140,2011-11-08 02:53:00
9:53 PM,71.1,63.0,75,29.95,10.0,South,19.6,24.2,N/A,,Clear,170,2011-11-08 03:53:00